{"data":{"norad_id":65748,"epoch":"2026-05-24T22:01:59.674656Z","epoch_age_seconds":92165,"freshness":"FRESH","line1":"1 65748U 25216Q   26144.91805179  .00023937  00000+0  81784-3 0  9997","line2":"2 65748  53.1606 338.8806 0000902 104.0189 256.0912 15.30194828 37133","mean_motion":15.30194828,"eccentricity":9.02e-5,"inclination_deg":53.1606,"raan_deg":338.8806,"arg_perigee_deg":104.0189,"mean_anomaly_deg":256.0912,"bstar":0.00081784,"rev_number":3713,"period_min":94.105663778913,"perigee_km":474.61233837297,"apogee_km":475.84868587215,"semimajor_km":6853.3675121226,"source":"CELESTRAK","updated_at":"2026-05-25T13:38:20.932280Z"}}